Regional Weather Roundup
Issued by NWS Little Rock, AR

Home | Current Version | Previous Version | Graphics & Text | Print | Product List | Glossary On
Versions: 1 2 3 4 5 6 7 8 9 10 11 12 13 14 15 16 17 18 19 20 21 22 23 24 25 26 27 28 29 30 31 32 33 34 35 36 37 38 39 40 41 42 43 44 45 46 47 48
000
ASUS44 KLZK 030305
RWRLZK

WEATHER ROUNDUP FOR ARKANSAS
NATIONAL WEATHER SERVICE LITTLE ROCK AR
1000 PM CDT SUN AUG 02 2015

NOTE: "FAIR" INDICATES FEW OR NO CLOUDS BELOW 12,000 FEET WITH NO
SIGNIFICANT WEATHER AND/OR OBSTRUCTIONS TO VISIBILITY.

ARZ001-003-010-029-030400-
NORTHWEST ARKANSAS

CITY           SKY/WX    TMP DP  RH WIND       PRES   REMARKS
FAYETTEVILLE   CLEAR     72  70  93 CALM      29.95R
FORT SMITH     CLEAR     83  68  60 CALM      29.88R HX  86
HARRISON       CLEAR     75  67  76 W5        29.96R
BENTONVILLE    CLEAR     77  66  69 CALM      29.96R
ROGERS         CLEAR     77  67  71 CALM      29.97R
SILOAM SPGS    CLEAR     75  64  69 CALM      29.94R
HIGHFILL       CLEAR     77  69  76 CALM      29.95R
$$

ARZ004-005-016-030400-
NORTH CENTRAL ARKANSAS

CITY           SKY/WX    TMP DP  RH WIND       PRES   REMARKS
BATESVILLE     CLEAR     77  72  83 CALM      29.91R
FLIPPIN        MOCLDY    81  66  61 CALM      29.91R
MTN HOME       MOCLDY    80  66  62 SW3       29.92R
$$

ARZ040-041-030400-
WEST CENTRAL ARKANSAS

CITY           SKY/WX    TMP DP  RH WIND       PRES   REMARKS
MENA           CLEAR     79  59  50 CALM      29.93R
MOUNT IDA      CLEAR     77  59  53 CALM      29.89R
$$

ARZ009-017-025-026-028-030400-
NORTHEAST ARKANSAS

CITY           SKY/WX    TMP DP  RH WIND       PRES   REMARKS
JONESBORO      CLEAR     75  71  87 CALM      29.89R
NEWPORT        CLEAR     80  73  79 S3        29.91R
WALNUT RIDGE   CLEAR     81  68  65 S6        29.89R
BLYTHEVILLE    CLEAR     80  74  81 S3        29.90R HX  85
$$

ARZ022-023-033-042-044-030400-
CENTRAL ARKANSAS

CITY           SKY/WX    TMP DP  RH WIND       PRES   REMARKS
LITTLE ROCK    PTCLDY    81  68  64 CALM      29.89R
N LITTLE ROCK  PTCLDY    85  69  59 S6        29.89R HX  88
JACKSONVILLE   CLEAR     79  69  70 S3        29.89R
SEARCY         CLEAR     77  72  84 CALM      29.91R
HOT SPRINGS    CLEAR     83  61  47 E3        29.90R
RUSSELLVILLE   PTCLDY    78  65  63 CALM      29.88R
CLINTON        FAIR      73  72  94 CALM      29.93R
$$

ARZ036-030400-
EAST ARKANSAS

CITY           SKY/WX    TMP DP  RH WIND       PRES   REMARKS
WEST MEMPHIS   CLEAR     77  73  87 CALM      29.89R
$$

ARZ050-053-066-070-073-030400-
SOUTHWEST ARKANSAS

CITY           SKY/WX    TMP DP  RH WIND       PRES   REMARKS
ARKADELPHIA    FAIR      76  71  84 CALM      29.89R
CAMDEN         CLEAR     75  68  78 CALM      29.88R
TEXARKANA      CLEAR     79  64  60 SE3       29.89R
EL DORADO      PTCLDY    78  66  66 CALM      29.89R
DE QUEEN       CLEAR     73  70  90 CALM      29.87R
$$

ARZ056-057-069-030400-
SOUTHEAST ARKANSAS

CITY           SKY/WX    TMP DP  RH WIND       PRES   REMARKS
PINE BLUFF     CLEAR     78  70  76 CALM      29.89R
STUTTGART      CLEAR     82  70  65 MISG      29.89S HX  86
MONTICELLO     CLEAR     77  69  76 CALM      29.89S

$$





USA.gov is the U.S. government's official web portal to all federal, state and local government web resources and services.